Location: Halten
(46.9000°N, 8.1667°E)
Time: 21:06:21
(UTC+00:00)

Daily predictions for brighter satellites

Satellite Brightness Start Highest point End
(mag) Time Altitude Azimuth Time Altitude Azimuth Time Altitude Azimuth
USA 245 4.1 19:55:35 10° SE 19:58:47 37° ENE 20:02:45 10° N
ATLAS 2AS CENTAUR R/B 4.4 19:59:05 10° NW 20:05:48 30° NNE 20:12:04 10° E
COSMOS 2428 3.7 20:04:46 10° SSE 20:09:22 26° ESE 20:13:59 10° NE
Cosmos 1844 3.9 20:04:19 10° NNW 20:10:06 68° ENE 20:15:47 10° SE
Cosmos 1703 3.5 20:06:56 10° S 20:10:41 50° E 20:14:28 10° NNE
Cosmos 2322 4.1 20:06:34 10° S 20:11:58 45° ESE 20:17:23 10° NE
Cosmos 1745 Rocket 4.0 20:06:08 10° S 20:12:20 84° E 20:18:39 10° N
MetOp-B 4.2 20:08:04 10° SSE 20:13:25 80° ENE 20:18:48 10° NNW
SL-08 ROCKET BODY 4.4 20:08:17 10° S 20:14:13 87° E 20:20:19 10° N
Cosmos 2263 Rocket 4.3 20:11:06 10° NW 20:15:15 22° W 20:19:23 10° SSW
Cosmos 1953 Rocket 4.2 20:13:47 10° SSE 20:17:46 37° E 20:21:47 10° NNE
Cosmos 773 Rocket 4.4 20:13:14 10° S 20:18:15 45° ESE 20:23:16 10° NNE
Cosmos 2237 Rocket 4.0 20:18:22 10° ESE 20:20:42 13° E 20:23:02 10° ENE
Cosmos 2219 Rocket 2.8 20:16:04 10° S 20:21:05 35° ESE 20:26:09 10° NE
ATLAS CENTAUR R/B 2.2 20:17:55 10° NNW 20:21:20 34° NE 20:24:41 10° ESE
ERS-1 Rocket 3.6 20:16:54 10° SE 20:21:37 41° ENE 20:26:20 10° N
Cosmos 1818 3.6 20:17:09 10° SW 20:22:36 89° NW 20:28:05 10° NE
Cosmos 2360 Rocket 2.3 20:17:54 10° SSW 20:23:33 85° WNW 20:29:16 10° NNE
Cosmos 2333 4.4 20:18:20 10° S 20:23:48 53° ESE 20:29:20 10° NE
USA 215 3.8 20:18:02 10° ENE 20:23:59 36° SE 20:29:52 10° SSW
SPOT 5 3.6 20:23:12 11° SE 20:27:43 40° ENE 20:32:10 10° N
Landsat 7 3.8 20:26:25 10° SSE 20:31:10 83° ENE 20:35:57 10° NNW
Atlas Centaur 2 3.9 20:27:30 10° SW 20:31:12 17° S 20:34:39 12° SE
Cosmos 1825 Rocket 3.6 20:28:19 10° S 20:32:45 82° E 20:37:14 10° N
Cosmos 2333 Rocket 2.5 20:29:25 10° S 20:34:51 49° ESE 20:40:21 10° NE
CZ-2C R/B 4.4 20:30:27 10° N 20:35:20 35° WNW 20:40:05 10° SW
GEOS 3 Rocket 3.7 20:34:25 10° NE 20:39:48 63° SE 20:45:08 10° SSW
SL-16 R/B 4.3 20:39:12 10° WSW 20:44:13 31° NW 20:49:17 10° NNE
Spot 2 Rocket 3.7 20:39:44 10° S 20:44:47 71° WSW 20:49:55 10° NNW
IGS 5A 3.7 20:42:30 10° S 20:46:37 67° WSW 20:50:47 10° NNW
Cosmos 1315 Rocket 3.3 20:42:49 10° N 20:46:49 48° ENE 20:49:46 17° SE
ATLAS 5 CENTAUR R/B 2.3 20:48:06 10° SW 20:52:12 58° NW 20:56:52 10° NE
Cosmos 1892 4.5 20:51:28 14° ESE 20:52:51 17° E 20:55:23 10° NE
CARTOSAT-1 3.6 20:49:41 15° SSE 20:53:09 74° ENE 20:57:28 10° N
USA 81 4.1 20:48:47 11° S 20:53:51 66° E 20:59:06 10° N
Cosmos 2278 Rocket 2.9 20:48:58 10° NNW 20:54:23 43° NE 20:58:50 15° ESE
Cosmos 1844 Rocket 3.5 20:51:13 10° NW 20:56:31 46° WSW 21:01:37 11° S
USA 267 3.9 20:50:43 10° E 20:57:04 55° NNE 21:03:26 10° NW
Cosmos 1709 Rocket 4.1 20:51:00 10° S 20:57:18 81° W 21:03:43 10° N
Meteor 1-11 4.3 20:58:04 10° S 21:03:42 88° W 21:09:26 10° N
SPOT 1/Viking Rocket 3.9 21:00:43 12° S 21:05:30 61° W 21:10:38 10° NNW
SL-16 R/B 4.2 21:05:10 10° ESE 21:05:52 10° E 21:06:35 10° E
Cosmos-2242 4.2 21:03:29 10° NNW 21:07:32 39° W 21:11:36 10° SSW
Cosmos 1400 Rocket 4.2 21:04:39 10° NNW 21:08:17 34° W 21:11:48 10° SSW
Cosmos 2221 2.8 21:08:25 10° N 21:12:44 53° ENE 21:15:14 23° SE
Cosmos 2184 Rocket 4.2 21:08:52 17° SSE 21:13:37 54° E 21:19:44 10° NNE
Lacrosse 5 rocket 4.0 21:11:47 10° NW 21:14:53 20° N 21:17:52 10° NE
Resurs 01 Rocket 4.1 21:12:29 10° SW 21:15:14 16° W 21:18:01 10° NW
Terra 1.8 21:14:58 21° SSE 21:18:11 83° ENE 21:22:59 10° NNW
SAR-Lupe-2 4.4 21:15:32 10° N 21:19:01 49° WNW 21:22:29 10° SSW
Cosmos 923 Rocket 4.4 21:16:24 19° SSE 21:19:45 44° ESE 21:24:46 10° NNE
TSX-5 3.9 21:24:32 10° NNW 21:28:00 63° ENE 21:30:04 27° SE
Cosmos 2058 3.3 21:27:38 27° SSE 21:29:26 45° E 21:33:24 10° NNE
NOSS 3-4 (A) 4.2 21:23:08 10° NW 21:29:59 62° NE 21:36:03 17° ESE
NOSS 3-4 (C) 4.2 21:23:15 10° NW 21:30:05 62° NE 21:36:11 16° ESE
NOSS 3-3 (A) 4.1 21:33:31 10° SW 21:39:24 75° NW 21:46:07 10° NE
NOSS 3-3 (C) 4.1 21:33:37 10° SW 21:39:31 76° NW 21:46:14 10° NE
Cosmos 1825 3.5 21:39:57 23° ESE 21:40:37 24° E 21:43:44 10° NE
Cosmos 1980 3.7 21:41:49 19° S 21:45:47 63° ESE 21:51:23 10° NNE
JB-3 4.1 21:42:28 10° NNE 21:46:20 80° ESE 21:48:04 31° S
Meteor 2-17 Rocket 4.4 21:43:29 21° S 21:47:44 82° E 21:53:49 10° N
Aureole 2 Rocket 4.1 21:46:07 10° NNE 21:48:08 17° ENE 21:48:50 16° ENE
Cosmos 1076 Rocket 3.5 21:47:32 32° S 21:49:26 67° E 21:53:40 10° NNE
Nadezhda 3 Rocket 4.1 21:45:13 10° N 21:51:37 73° E 21:55:18 27° SSE
COSMOS 2455 4.5 21:47:37 10° NNW 21:52:45 28° NE 21:57:51 10° E
COSMOS 2428 3.4 21:47:44 10° SW 21:53:16 54° WNW 21:58:52 10° NNE
Cosmos 2154 Rocket 4.0 21:49:47 24° S 21:53:37 71° E 21:59:49 10° NNE
Cosmos 2084 4.5 21:50:21 10° NW 21:54:25 36° WSW 21:56:03 26° SSW
Cosmos 2151 3.8 21:55:43 30° ESE 21:56:50 35° E 22:00:44 10° NNE
ATLAS 2AS CENTAUR R/B 2.9 21:50:20 10° NW 21:58:00 79° NE 22:02:39 23° SE
DELTA 2 R/B (1) 4.1 21:53:40 10° SW 21:58:43 36° S 22:01:15 24° ESE
Thor Agena Rocket 3.8 21:54:28 10° NNE 21:59:27 50° E 22:01:29 31° SSE
Cosmos 2074 Rocket 4.2 21:54:31 16° SSW 21:59:37 69° W 22:05:51 10° N
ATLAS CENTAUR R/B 2.6 21:57:04 10° WNW 22:00:04 24° WSW 22:00:56 22° SW
Cosmos 1869 4.1 21:56:53 10° NNW 22:00:43 45° W 22:02:34 26° SSW
BREEZE-M DEB (TANK) 2.0 21:57:39 10° WNW 22:02:12 64° N 22:03:23 29° E
Genesis I 3.1 22:00:58 39° S 22:02:12 61° ESE 22:06:04 10° NE
Cosmos 2237 Rocket 2.1 21:59:40 19° SSW 22:03:48 80° ESE 22:09:32 10° NNE
Cosmos 2219 Rocket 3.4 21:59:43 10° SW 22:04:58 41° NW 22:10:16 10° NNE
SPOT 5 4.4 22:02:26 14° SSW 22:05:52 28° W 22:10:00 10° NW
Cosmos 1371 Rocket 4.1 22:01:04 10° NNW 22:06:21 73° ENE 22:08:51 32° SE
USA 215 3.4 22:00:48 10° NE 22:07:23 80° NNW 22:13:55 10° WSW
Spot 4 3.9 22:06:50 33° SE 22:08:53 66° ENE 22:13:38 10° N
Cosmos 2344 3.6 22:05:02 17° SSW 22:10:58 61° ESE 22:18:46 10° NE
Cosmos 158 Rocket 3.7 22:09:33 27° SSW 22:12:12 86° ESE 22:17:08 10° NNE
Cosmos 1151 Rocket 4.2 22:10:25 10° N 22:14:19 32° ENE 22:15:44 26° ESE
Cosmos 2112 Rocket 4.0 22:12:33 26° SSW 22:15:41 85° ESE 22:21:05 10° NNE
Elektron 1 4.3 22:15:07 25° SW 22:16:56 84° NW 22:22:17 10° NE
CZ-4C R/B 4.3 22:12:31 10° NNW 22:18:33 32° NNE 22:25:28 10° E
Cosmos 2333 Rocket 3.9 22:14:16 10° WSW 22:19:21 32° NW 22:24:29 10° NNE
Atlas Centaur 2 4.4 22:16:13 10° SW 22:17:13 12° SSW 22:17:13 12° SSW
ALOS 2 3.3 22:18:57 30° ESE 22:20:32 43° ENE 22:24:43 10° N
Iridium 2 3.7 22:21:02 10° N 22:24:51 72° W 22:25:48 48° SSW
Cosmos 1892 3.9 22:26:26 22° SW 22:28:15 36° WNW 22:31:49 10° N
NOSS 0 Rocket 4.4 22:23:03 10° SW 22:29:06 59° WNW 22:35:14 10° NNE
EO 1 Del DPAF 3.1 22:25:19 10° NNE 22:29:06 85° ESE 22:29:55 54° S
Cosmos 2056 Rocket 3.5 22:24:45 10° NNW 22:30:12 84° WSW 22:32:26 37° SSE
GP-B 3.5 22:27:37 10° NNE 22:31:56 48° E 22:33:05 39° SE
Cosmos 1606 2.8 22:32:49 10° N 22:36:42 64° E 22:37:25 51° SE
Cosmos 2278 Rocket 3.2 22:33:18 10° NW 22:38:20 34° WSW 22:40:40 24° SSW
Cosmos 1408 3.5 22:37:57 32° WSW 22:39:01 41° WNW 22:42:27 10° N
USA 267 3.3 22:36:39 30° SSE 22:40:02 64° SW 22:46:34 10° WNW
Cosmos 2297 3.7 22:35:31 10° NNW 22:41:18 80° ENE 22:43:51 35° SE
Cosmos 44 2.9 22:40:50 49° S 22:41:47 65° ESE 22:46:10 10° NE
Cosmos 1943 Rocket 3.1 22:36:35 10° NNW 22:42:00 43° NE 22:45:29 21° ESE
MOS 1-B Rocket 4.4 22:34:55 10° NNE 22:42:39 87° WNW 22:46:38 27° SSW
Gbstr 26 Del rocket 4.0 22:44:20 26° E 22:44:20 26° E 22:46:34 10° ENE
Cosmos 1680 Rocket 4.3 22:39:45 16° SW 22:43:50 50° WNW 22:49:02 10° NNE
SL-16 R/B 2.2 22:46:35 36° S 22:48:53 69° ESE 22:54:33 10° NNE
Cosmos 371 Rocket 3.4 22:44:47 10° NNW 22:49:40 70° ENE 22:51:21 40° SE
IRIDIUM 104 4.3 22:49:57 40° SSE 22:51:48 72° E 22:57:01 10° N
CREW DRAGON DEMO-1 DEB 3.2 22:53:16 53° WNW 22:53:43 63° NNW 22:56:46 10° ENE
APEX 3.5 22:51:27 10° NNW 22:53:52 39° NE 22:53:52 39° NE
Lacrosse 5 rocket 3.1 22:51:27 10° NW 22:55:03 30° NNE 22:58:29 10° E
Cosmos 405 4.3 22:52:31 10° N 22:55:39 29° ENE 22:56:11 27° E
Terra 4.2 22:54:32 10° WSW 22:56:34 12° W 22:58:35 10° WNW
Cosmos 1452 Rocket 3.7 22:51:53 10° NNW 22:57:09 63° ENE 22:59:20 34° SE
Cosmos 1515 Rocket 4.0 22:54:45 10° N 22:59:01 53° ENE 23:00:08 41° SE
IRIDIUM 114 4.3 22:59:06 42° S 23:00:57 85° E 23:06:13 10° N
Cosmos 1766 Rocket 3.6 23:01:32 46° SSW 23:02:45 73° W 23:07:11 10° N
Cosmos 1328 Rocket 3.4 23:00:51 10° N 23:05:11 81° W 23:06:06 54° S
Okean 3 Rocket 4.0 23:07:34 37° SW 23:09:02 55° WNW 23:13:24 10° N
IRIDIUM 103 4.3 23:08:14 41° SSW 23:10:06 80° W 23:15:21 10° N
Meteor 2-3 Rocket 3.7 23:12:54 40° S 23:15:03 82° E 23:20:47 10° NNE
Cosmos 1340 2.5 23:15:33 67° SW 23:15:58 79° WNW 23:19:45 10° N
Cosmos 1825 3.9 23:14:44 21° WSW 23:16:03 26° WNW 23:19:17 10° NNW
Cosmos 864 Rocket 4.5 23:16:18 35° SSW 23:19:07 83° W 23:25:28 10° N
Cosmos 2228 Rocket 3.7 23:15:34 10° N 23:20:02 49° ENE 23:21:26 36° SE
Cosmos 2218 Rocket 4.1 23:17:43 33° SSW 23:20:44 76° W 23:27:04 10° N
Aureole 2 Rocket 4.1 23:19:21 10° NW 23:20:49 20° WNW 23:20:49 20° WNW
Cosmos 1603 4.4 23:22:36 32° SE 23:24:05 38° ESE 23:29:20 10° NE
Cosmos 2366 rocket 4.1 23:21:57 33° SSW 23:24:57 74° W 23:31:20 10° N
Meteor 1-26 Rocket 4.3 23:20:03 10° NNW 23:26:05 77° W 23:28:23 39° S
Cosmos 1743 Rocket 3.5 23:29:40 54° SSE 23:30:29 68° E 23:34:49 10° NNE
Cosmos 2369 Rocket 2.4 23:24:53 10° NNW 23:30:29 68° ENE 23:33:18 30° SE
CZ-4 R/B 4.4 23:26:48 10° NNE 23:31:18 43° E 23:32:25 37° SE
SL-4 R/B 3.6 23:33:31 14° NW 23:33:31 14° NW 23:33:56 10° NNW
Cosmos 44 Rocket 4.2 23:32:07 29° ESE 23:32:22 29° ESE 23:36:27 10° NE
Cosmos 1821 Rocket 4.2 23:30:57 34° SSE 23:33:28 57° E 23:39:25 10° NNE
Cosmos 304 Rocket 3.7 23:28:40 10° NNW 23:33:32 86° ENE 23:35:00 46° SSE
YAOGAN 11 4.0 23:33:15 53° SSE 23:34:15 88° WSW 23:38:42 10° NNW
Helios 1A 2.9 23:34:08 57° SSW 23:34:48 69° WSW 23:38:57 10° NNW
Cosmos 1933 4.2 23:31:19 10° NNW 23:35:02 36° W 23:35:34 35° WSW
COSMOS 2455 2.8 23:33:14 10° NW 23:39:17 75° WSW 23:41:47 37° SSE
ATLAS 2AS CENTAUR R/B 3.9 23:42:20 10° WNW 23:48:09 26° WSW 23:50:03 23° SW
Cosmos 2237 Rocket 4.3 23:44:12 10° W 23:48:34 22° NW 23:52:57 10° N
USA 215 4.5 23:43:52 10° NE 23:49:56 42° NNW 23:56:00 10° W
Cosmos 1812 3.6 23:46:48 10° N 23:50:30 42° ENE 23:51:25 35° ESE
Cosmos 1151 Rocket 4.4 23:48:11 10° NNW 23:51:45 25° W 23:52:34 24° WSW
CRYOSAT 2 4.4 23:47:25 10° N 23:52:18 71° E 23:53:46 44° SSE
Cosmos 1782 3.0 23:48:46 10° NNW 23:52:39 54° W 23:53:04 51° WSW
CZ-2D R/B 4.1 23:51:10 10° NE 23:54:39 17° E 23:57:20 13° ESE
